Regional Weather Roundup
Issued by NWS Sioux Falls, SD

Home | Current Version | Previous Version | Text Only | Print | Product List | Glossary On
Versions: 1 2 3 4 5 6 7 8 9 10 11 12 13 14 15 16 17 18 19 20 21 22 23 24 25 26 27 28 29 30 31 32 33 34 35 36 37 38 39 40 41 42 43 44 45 46 47 48 49 50
000
ASUS43 KFSD 231102
RWRFSD

WEATHER ROUNDUP FOR SE SOUTH DAKOTA/SW MINNESOTA/NW IOWA
NATIONAL WEATHER SERVICE SIOUX FALLS SD
600 AM CDT SAT AUG 23 2014

NOTE: "FAIR" INDICATES FEW OR NO CLOUDS BELOW 12,000 FEET WITH NO
SIGNIFICANT WEATHER AND OR OBSTRUCTIONS TO VISIBILITY.


SDZ038>040-050-052>070-231200-
SOUTHEAST SOUTH DAKOTA

CITY           SKY/WX    TMP DP  RH WIND       PRES   REMARKS
CHAMBERLAIN    CLOUDY    67  67  98 E13G20    29.84F
HURON          RAIN      70  69  97 E12G18    29.89F FOG
MADISON        LGT RAIN  68  68 100 E15G26    29.93F
MITCHELL       LGT RAIN  70  69  97 E14       29.85F
SIOUX FALLS    LGT RAIN  70  67  90 NE18G24   29.89F
WINNER         CLOUDY    68  66  93 NE7       29.84F
YANKTON        CLOUDY    68  66  94 E6        29.87R
$$

MNZ071-072-080-081-089-090-097-098-231200-
SOUTHWEST MINNESOTA

CITY           SKY/WX    TMP DP  RH WIND       PRES   REMARKS
FAIRMONT       CLOUDY    61  61 100 MISG      29.96F VSB 3/4
JACKSON        CLOUDY    68  64  88 E5        29.98S FOG
LUVERNE        RAIN      70  68  94 NE10G17   29.93F
MARSHALL       CLOUDY    70  66  88 CALM      30.00R
MONTEVIDEO     CLOUDY    68  68 100 SE5       30.00S
PIPESTONE      HVY RAIN  70  66  88 CALM      30.02R
REDWOOD FALLS  CLOUDY    68  66  93 NE5       29.98S FOG
TRACY          FOG       68  67  97 NE3       30.00R VSB 1/2
WINDOM         LGT RAIN  68  66  94 E6        29.99S
WORTHINGTON      N/A     70  68  94 S8G17     30.03R THUNDER
$$

IAZ001>003-012>014-020>022-031-032-NEZ013-014-SDZ071-231200-
NORTHWEST IOWA

CITY           SKY/WX    TMP DP  RH WIND       PRES   REMARKS
CHEROKEE       LGT RAIN  68  68 100 NE3       29.93F
DENISON        LGT RAIN  70  70 100 CALM      29.94F
ESTHERVILLE    CLOUDY    68  68 100 NE3       29.96F FOG
LE MARS        CLOUDY    68  68 100 NE9       29.87F
ORANGE CITY    DRIZZLE   70  66  88 E8        29.89F
SHELDON        RAIN      68  68 100 NE12      29.91F
SIOUX CITY     CLOUDY    73  68  84 E16       29.86F
SPENCER        LGT RAIN  70  68  93 N7        29.96F
STORM LAKE     LGT RAIN  68  68 100 N8        29.95F
$$

ABBREVIATIONS USED IN REMARKS
   TC - TEMPERATURE IN CELSIUS
  WCI - WIND CHILL INDEX
   HX - HEAT INDEX
  VSB - VISIBILITY



USA.gov is the U.S. government's official web portal to all federal, state and local government web resources and services.